Tracking 34717 objects as of 14-Jul-2026
HD Live streaming from Space Station
objects crossing your sky now

ONEWEB-0359

Track ONEWEB-0359 now!
10-day predictions
ONEWEB-0359 is classified as:


NORAD ID: 49285
Int'l Code: 2021-090G
Perigee: 1,187.3 km
Apogee: 1,190.5 km
Inclination: 87.9 °
Period: 109.0 minutes
Semi major axis: 7559 km
RCS: Unknown
Launch date: October 14, 2021
Source: United Kingdom (UK)
Launch site: VOSTOCHNY COSMODROME (VOSTO)
Your satellite tracking list
Your tracking list is empty




NASA's NSSDC Master Catalog

Two Line Element Set (TLE):
1 49285U 21090G   26195.44990476  .00000147  00000-0  32982-3 0  9995
2 49285  87.9188 269.0022 0002135  91.3016 268.8362 13.20770814234134
Source of the keplerian elements: AFSPC